Regional Weather Roundup
Issued by NWS State College, PA

Current Version | Previous Version | Text Only | Print | Product List | Glossary On
Versions: 1 2 3 4 5 6 7 8 9 10 11 12 13 14 15 16 17 18 19 20 21 22 23 24 25 26 27 28 29 30 31 32 33 34 35 36 37 38 39 40 41 42 43 44 45 46 47 48 49 50
000
ASUS41 KCTP 211910
RWRCTP

REGIONAL WEATHER ROUNDUP
NATIONAL WEATHER SERVICE STATE COLLEGE PA
300 PM EDT WED OCT 21 2020

Note: "fair" indicates few or no clouds below 12,000 feet with no
significant weather and/or obstructions to visibility.

* = STATION THAT DOES NOT REPORT PRECIPITATION /E.G. RAIN...SNOW...ETC/
    THUNDER OR FOG.

PAZ002>004-007>009-013>016-020>023-029>032-212000-
WESTERN PENNSYLVANIA

CITY           SKY/WX    TMP DP  RH WIND       PRES   REMARKS
ERIE           CLOUDY    61  57  87 W10       30.17S
MEADVILLE      CLOUDY    56  54  93 W8        30.19R
FRANKLIN       CLOUDY    64  60  87 W9        30.19
NEW CASTLE     CLOUDY    68  60  75 W8        30.19R
BEAVER COUNTY  CLOUDY    72  60  67 W12       30.19R
BUTLER         LGT RAIN  71  62  73 W10       30.19S
PITTSBURGH INT CLOUDY    72  60  66 W9G20     30.18S
PITTSBURGH     CLOUDY    74  60  61 SW12      30.18S
INDIANA*       NOT AVBL
LATROBE        MOSUNNY   77  59  53 SW14      30.19F
WASHINGTON CO* CLOUDY    75  63  66 SW8       30.21F
$$

PAZ004>006-010>012-017>019-024>028-033>037-041-042-045-046-049>053-212000-
CENTRAL PENNSYLVANIA

CITY           SKY/WX    TMP DP  RH WIND       PRES   REMARKS
BRADFORD       LGT RAIN  68  57  68 SW7G17    30.16R
ST MARYS       CLOUDY    70  59  68 SW14G22   30.20S
DUBOIS         CLOUDY    72  58  61 W9        30.17S
CLEARFIELD     MOSUNNY   74  57  55 SW13G24   30.17S
JOHNSTOWN      MOSUNNY   73  54  51 W15G24    30.22S
SOMERSET       FAIR      72  54  53 W14G22    30.23S
ALTOONA        SUNNY     78  56  46 S8        30.18F
STATE COLLEGE  MOSUNNY   77  59  53 SW9       30.15F
REEDSVILLE     NOT AVBL
WELLSBORO      MOCLDY    72  59  64 SW15G22   30.15S
WILLIAMSPORT   MOSUNNY   77  58  51 SE14G21   30.13F
SELINSGROVE    SUNNY     76  60  57 S9        30.17S
FT INDIANTOWN  MOSUNNY   73  63  69 S8        30.19F
CAPITAL CITY   MOSUNNY   79  61  53 S9        30.17F
HARRISBURG     MOSUNNY   76  61  59 S7        30.17F
YORK           SUNNY     76  61  59 VRB5      30.18F
$$

PAZ038>040-043-044-047-048-054-055-060>062-067>071-212000-
EASTERN PENNSYLVANIA

CITY           SKY/WX    TMP DP  RH WIND       PRES   REMARKS
TOWANDA        CLEAR     75  57  53 SW13G18   30.13F
SCRANTON       SUNNY     74  59  59 S12G18    30.17F
MOUNT POCONO   CLOUDY    61  58  90 S8        30.23F
HAZLETON       MOCLDY    66  59  77 S8        30.24S
LEHIGHTON      CLOUDY    70  63  78 S8        30.21F
ALLENTOWN      CLOUDY    67  62  84 SW7       30.21F
QN CITY/ALNTWN CLOUDY    66  63  88 S7        30.23S
QUAKERTOWN*    CLOUDY    64  64 100 CALM      30.22F FOG
PERKASIE*      NOT AVBL
DOYLESTOWN     CLOUDY    70  64  81 SW7       30.21F
READING        CLOUDY    69  64  84 CALM      30.20S
LANCASTER      CLOUDY    72  63  73 S9        30.20F
COATESVILLE    CLOUDY    66  66 100 VRB6      30.23F
WEST CHESTER   NOT AVBL
POTTSTOWN      CLOUDY    68  64  87 SW6       30.22F
BLUE BELL      CLOUDY    69  65  89 S6        30.22F
NORTH PHILA    MOSUNNY   77  67  71 SW8       30.22F
PHILADELPHIA   MOSUNNY   74  66  76 W9        30.21F
$$



USA.gov is the U.S. government's official web portal to all federal, state and local government web resources and services.